Powrót do katalogu

STARLINK-36832

AktywnyŁącznośćSSO
NORAD 68805·PAYLOAD·🇺🇸 United States

Wystrzelony Apr 23, 2026 z Vandenberg Space Force Base

Loading…

Następne Przeloty (najbliższe 24 godziny)

TLE

ŚwieżeSource: CelesTrak SupGP

Epoka: Sep 14, 2026, 23:33 UTC

1 68805C 26089D   26257.98173611  .00082926  00000+0  25744-2 0  2577
2 68805  97.2847 103.7664 0001763  93.4228 125.3348 15.33395039    16

Śledź STARLINK-36832 w czasie rzeczywistym z AllMySat

Download on the App Store